Tracking 19827 objects as of 21-Aug-2019
HD Live streaming from Space Station
objects crossing your sky now

COSMOS 2013

Track COSMOS 2013 now!
10-day predictions
COSMOS 2013 is classified as:


NORAD ID: 19907
Int'l Code: 1989-025F
Perigee: 1,472.1 km
Apogee: 1,486.8 km
Inclination: 74.0 °
Period: 115.4 minutes
Semi major axis: 7850 km
RCS: 0.7071 m2 (medium)
Launch date: March 24, 1989
Source: Commonwealth of Independent States (former USSR) (CIS)
Launch site: PLESETSK MISSILE AND SPACE COMPLEX (PKMTR)
aabbcc
Your satellite tracking list
Your tracking list is empty




NASA's NSSDC Master Catalog

Two Line Element Set (TLE):
1 19907U 89025F   19232.90134236 -.00000014 +00000-0 +12366-4 0  9993
2 19907 074.0075 071.2337 0009377 143.3862 318.5723 12.48135987385471
Source of the keplerian elements: AFSPC